KF6ILA Weather Reports


time (UTC)temp
F
wind
direction
speed
knots
gust
knots
rain 1hr
in
rain 24hr
in
rain mn
in
humidity
%
barometer
mb
20260505180500 41 276 13.0 24.3 0.03 0.48 0.08 100 1011.6
20260505180003 41 266 14.8 24.3 0.03 0.48 0.08 100 1011.3
20260505175506 41 269 13.9 23.5 0.04 0.48 0.08 100 1011.4
20260505175009 41 278 13.9 23.5 0.04 0.48 0.08 100 1011.4
20260505174512 42 276 14.8 22.6 0.04 0.48 0.08 100 1011.3
20260505174015 42 269 14.8 22.6 0.03 0.47 0.07 100 1011.0
20260505173519 42 274 10.4 24.3 0.03 0.47 0.07 100 1010.9
20260505173021 42 259 17.4 24.3 0.04 0.47 0.07 100 1010.7
20260505172524 42 257 14.8 29.5 0.04 0.47 0.07 100 1010.6
20260505172027 42 273 17.4 29.5 0.03 0.46 0.06 100 1010.6
20260505171530 42 257 20.9 29.5 0.03 0.46 0.06 100 1010.7
20260505171033 42 265 13.9 23.5 0.03 0.46 0.06 100 1010.7
20260505170536 43 272 14.8 21.7 0.03 0.45 0.05 100 1010.7
20260505170039 43 270 13.9 21.7 0.03 0.45 0.05 100 1010.6
20260505165542 43 258 13.0 21.7 0.02 0.44 0.04 100 1010.6
20260505165045 43 255 13.9 23.5 0.02 0.44 0.04 100 1010.3
20260505164549 42 269 11.3 23.5 0.02 0.44 0.04 100 1010.4
20260505164051 42 267 11.3 19.1 0.03 0.44 0.04 100 1010.5
20260505163554 42 270 11.3 20.0 0.03 0.44 0.04 100 1010.4
20260505163149 42 269 11.3 20.9 0.03 0.43 0.03 100 1010.4
20260505163057 42 269 11.3 20.9 0.03 0.43 0.03 100 1010.4
20260505162636 42 274 13.9 20.9 0.03 0.43 0.03 100 1010.3
20260505162600 42 274 13.9 20.9 0.03 0.43 0.03 100 1010.3
20260505162103 42 271 12.2 19.1 0.03 0.43 0.03 100 1010.2
20260505161606 42 285 10.4 20.9 0.03 0.43 0.03 100 1010.2
20260505161109 42 284 13.9 26.1 0.03 0.43 0.03 100 1010.2
20260505160612 42 284 13.9 26.1 0.02 0.42 0.02 100 1010.2
20260505160115 42 293 18.2 26.1 0.02 0.42 0.02 100 1010.2
20260505153133 41 269 18.2 26.1 0.00 0.40 0.00 100 1009.9
20260505152636 41 270 18.2 26.9 0.00 0.40 0.00 100 1009.9
20260505152139 41 272 18.2 26.9 0.00 0.40 0.00 100 1009.8
20260505151642 41 262 18.2 27.8 0.00 0.40 0.00 100 1009.7
20260505151145 41 272 15.6 27.8 0.01 0.40 0.00 100 1009.8
20260505150648 41 263 19.1 27.8 0.01 0.40 0.00 100 1009.8
20260505150151 41 275 13.9 28.7 0.01 0.40 0.00 100 1009.7
20260505140227 42 249 15.6 23.5 0.07 0.39 0.39 100 1009.6
20260505130303 42 267 10.4 17.4 0.05 0.32 0.32 100 1009.4
20260505124812 42 282 9.6 21.7 0.04 0.30 0.30 100 1009.3
20260505124316 42 290 13.9 21.7 0.04 0.30 0.30 100 1009.3
20260505123818 42 286 8.7 18.2 0.03 0.29 0.29 100 1009.3
20260505123322 42 256 10.4 18.2 0.03 0.29 0.29 100 1009.3
20260505122824 42 261 13.0 18.2 0.01 0.27 0.27 100 1009.1
20260505122327 42 271 9.6 15.6 0.01 0.27 0.27 100 1008.9
20260505121830 42 264 7.8 15.6 0.01 0.27 0.27 100 1009.0
20260505121333 43 274 7.8 20.9 0.02 0.27 0.27 100 1009.1
20260505120836 43 255 7.8 21.7 0.02 0.27 0.27 100 1009.0
20260505115842 43 255 10.4 18.2 0.02 0.27 0.27 100 1009.2
20260505115345 43 247 10.4 20.9 0.01 0.26 0.26 100 1009.1
20260505114848 43 256 11.3 24.3 0.01 0.26 0.26 100 1009.1
20260505114351 43 268 13.9 26.1 0.02 0.26 0.26 100 1009.1
20260505113855 43 268 17.4 26.1 0.02 0.27 0.26 100 1009.1
20260505113357 43 266 13.9 22.6 0.03 0.27 0.26 100 1009.2
20260505112901 43 266 13.0 24.3 0.03 0.27 0.26 100 1009.3
20260505111907 43 267 13.9 22.6 0.04 0.27 0.26 100 1009.3
20260505111409 43 278 13.9 22.6 0.04 0.26 0.25 100 1009.4
20260505110913 43 272 13.9 27.8 0.04 0.26 0.25 100 1009.4
20260505110415 43 275 16.5 27.8 0.05 0.26 0.25 100 1009.3
20260505101943 42 282 10.4 17.4 0.08 0.23 0.22 100 1009.4
20260505101446 42 278 10.4 17.4 0.08 0.22 0.21 100 1009.3
20260505100949 42 282 8.7 14.8 0.09 0.22 0.21 99 1009.4
20260505095955 42 281 8.7 19.1 0.10 0.20 0.19 100 1009.5
20260505095457 42 270 9.6 19.1 0.12 0.20 0.19 100 1009.6
20260505095001 42 258 13.0 19.1 0.12 0.19 0.18 100 1009.5
20260505094504 42 266 12.2 19.1 0.13 0.19 0.18 100 1009.6
20260505094007 42 263 10.4 17.4 0.13 0.18 0.17 100 1009.6
20260505093510 42 255 7.8 13.9 0.14 0.18 0.17 100 1009.6
20260505093013 42 261 7.0 20.0 0.13 0.17 0.16 100 1009.8
20260505092516 42 254 6.1 20.0 0.12 0.16 0.15 100 1009.7
20260505092019 42 252 11.3 17.4 0.11 0.15 0.14 100 1009.9
20260505091522 41 257 9.6 17.4 0.10 0.14 0.13 99 1009.8
20260505091025 41 253 7.8 14.8 0.10 0.13 0.12 99 1009.9
20260505090527 41 262 10.4 14.8 0.10 0.12 0.11 99 1010.0
20260505090031 41 258 8.7 18.2 0.08 0.10 0.09 99 1009.9
20260505085534 42 272 12.2 18.2 0.06 0.08 0.07 99 1010.0
20260505085038 42 270 10.4 18.2 0.05 0.07 0.06 99 1010.1
20260505084539 42 273 5.2 17.4 0.04 0.06 0.05 99 1010.0
20260505084043 42 250 8.7 15.6 0.03 0.05 0.04 99 1010.2
20260505083546 42 239 7.8 17.4 0.02 0.04 0.03 99 1010.0
20260505083049 42 257 10.4 17.4 0.02 0.04 0.03 99 1010.0
20260505082552 42 266 8.7 17.4 0.02 0.04 0.03 99 1010.2
20260505082054 42 258 10.4 17.4 0.02 0.04 0.03 99 1010.3
20260505081557 41 268 12.2 20.0 0.02 0.04 0.03 99 1010.2
20260505081101 41 269 13.0 20.0 0.01 0.03 0.02 99 1010.4
20260505080604 41 266 10.4 20.9 0.00 0.02 0.01 99 1010.4
20260505080107 41 268 10.4 22.6 0.00 0.02 0.01 99 1010.6
20260505075610 41 274 13.9 22.6 0.00 0.02 0.01 99 1010.6
20260505074711 40 274 15.6 24.3 0.00 0.02 0.01 99 1010.5
20260505074616 40 274 15.6 24.3 0.00 0.02 0.01 99 1010.5
20260505073711 40 264 14.8 26.1 0.00 0.02 0.01 99 1010.5
20260505073622 40 264 14.8 26.1 0.00 0.02 0.01 99 1010.5
20260505073159 41 271 17.4 26.1 0.00 0.02 0.01 99 1010.2
20260505073125 41 271 17.4 26.1 0.00 0.02 0.01 99 1010.2
20260505072627 41 264 15.6 26.1 0.00 0.02 0.01 99 1010.2
20260505072130 41 266 17.4 26.1 0.00 0.02 0.01 99 1010.3
20260505071739 41 268 13.9 24.3 0.00 0.02 0.01 99 1010.4
20260505071634 41 268 13.9 24.3 0.00 0.02 0.01 99 1010.4
20260505071136 41 266 13.0 24.3 0.00 0.02 0.01 99 1010.4
20260505070640 41 260 15.6 26.1 0.00 0.02 0.01 99 1010.3
20260505070143 41 264 16.5 26.9 0.00 0.02 0.01 99 1010.5
20260505065646 41 265 18.2 26.9 0.00 0.02 0.01 99 1010.3
20260505065247 41 266 17.4 26.9 0.00 0.02 0.01 99 1010.4
20260505065149 41 266 17.4 26.9 0.00 0.02 0.01 99 1010.4
20260505064652 41 267 20.9 26.9 0.00 0.02 0.01 99 1010.7
20260505064154 41 265 16.5 25.2 0.00 0.02 0.01 99 1010.7
20260505063753 42 264 13.9 22.6 0.00 0.02 0.01 99 1011.0
20260505063658 42 264 13.9 22.6 0.00 0.02 0.01 99 1011.0
20260505063253 42 259 12.2 20.9 0.00 0.02 0.01 99 1010.8
20260505063201 42 259 12.2 20.9 0.00 0.02 0.01 99 1010.8
20260505062704 42 267 13.9 22.6 0.00 0.02 0.01 99 1010.5
20260505062207 42 269 14.8 22.6 0.01 0.02 0.01 99 1010.5
20260505061709 42 266 17.4 25.2 0.01 0.02 0.01 99 1010.6
20260505061303 42 267 17.4 25.2 0.01 0.02 0.01 98 1010.6
20260505061213 42 267 17.4 25.2 0.01 0.02 0.01 98 1010.6
20260505060715 41 280 13.9 27.8 0.01 0.02 0.01 98 1010.7
20260505060219 41 277 14.8 27.8 0.01 0.02 0.01 98 1010.6
20260505055224 41 269 19.1 25.2 0.01 0.02 0.01 98 1010.8
20260505054728 41 268 16.5 24.3 0.01 0.02 0.01 98 1011.0
20260505054231 41 261 18.2 27.8 0.01 0.02 0.01 98 1010.7
20260505053237 41 263 15.6 27.8 0.01 0.02 0.01 98 1011.0
20260505052740 41 259 19.1 27.8 0.01 0.02 0.01 98 1010.9
20260505052243 41 248 14.8 30.4 0.00 0.01 0.00 97 1011.0
20260505051746 41 251 17.4 30.4 0.00 0.01 0.00 97 1011.0
20260505051248 41 257 13.9 26.9 0.00 0.01 0.00 97 1011.1
20260505050752 41 266 11.3 26.9 0.00 0.01 0.00 97 1011.2
20260505041324 42 258 11.3 20.9 0.00 0.01 0.00 98 1011.3
20260505040827 42 271 8.7 21.7 0.00 0.01 0.00 98 1011.1
20260505040331 42 251 14.8 24.3 0.00 0.01 0.00 97 1011.3
20260505035834 42 276 9.6 24.3 0.00 0.01 0.00 97 1011.2
20260505035337 42 273 11.3 24.3 0.00 0.01 0.00 97 1011.2
20260505034839 42 281 10.4 24.3 0.00 0.01 0.00 97 1011.1
20260505034343 42 268 10.4 24.3 0.00 0.01 0.00 97 1011.1
20260505033846 42 253 13.9 24.3 0.00 0.01 0.00 97 1011.0
20260505033348 43 270 9.6 20.9 0.00 0.01 0.00 97 1010.9
20260505032355 43 256 11.3 26.9 0.00 0.01 0.00 97 1010.8
20260505031857 43 265 18.2 27.8 0.00 0.01 0.00 96 1010.7
20260505031400 43 253 13.9 24.3 0.00 0.01 0.00 96 1010.6
20260505030903 43 266 11.3 17.4 0.00 0.01 0.00 96 1010.8
20260505030406 43 264 8.7 20.0 0.00 0.01 0.00 96 1010.7
20260505025909 43 261 11.3 20.9 0.00 0.01 0.00 96 1010.7
20260505025412 43 281 11.3 24.3 0.00 0.01 0.00 95 1010.6
20260505024915 43 278 9.6 24.3 0.00 0.01 0.00 95 1010.5
20260505024418 43 276 9.6 24.3 0.00 0.01 0.00 94 1010.6
20260505023922 43 278 13.9 24.3 0.00 0.01 0.00 94 1010.4
20260505023424 43 267 10.4 23.5 0.00 0.01 0.00 94 1010.5
20260505022927 43 278 13.9 23.5 0.00 0.01 0.00 93 1010.2
20260505022431 43 256 11.3 27.8 0.00 0.01 0.00 93 1010.6
20260505021933 44 255 14.8 28.7 0.00 0.01 0.00 93 1010.5
20260505021437 44 255 20.9 28.7 0.00 0.01 0.00 92 1010.4
20260505020940 44 259 11.3 21.7 0.00 0.01 0.00 91 1010.5
20260505020443 44 265 12.2 25.2 0.00 0.01 0.00 91 1010.4
20260505015946 44 262 12.2 25.2 0.00 0.01 0.00 91 1010.2
20260505015449 44 253 14.8 20.9 0.00 0.01 0.00 90 1010.2
20260505014952 45 260 13.0 19.1 0.00 0.01 0.00 89 1010.4
20260505014455 45 268 12.2 26.1 0.00 0.01 0.00 89 1010.4
20260505013958 45 268 14.8 25.2 0.00 0.01 0.00 89 1010.5
20260505013004 46 273 15.6 23.5 0.00 0.01 0.00 88 1010.5
20260505012506 46 277 16.5 26.1 0.00 0.01 0.00 87 1010.4
20260505012009 46 280 13.0 26.9 0.00 0.01 0.00 86 1010.5
20260505011512 46 288 16.5 26.9 0.00 0.01 0.00 86 1010.4
20260505011046 47 287 17.4 26.1 0.00 0.01 0.00 85 1010.5
20260505011015 47 287 17.4 26.1 0.00 0.01 0.00 85 1010.5
20260505010518 47 277 13.9 24.3 0.00 0.01 0.00 85 1010.5
20260505010021 47 283 14.8 23.5 0.00 0.01 0.00 84 1010.7
20260505005524 48 280 13.9 26.1 0.00 0.01 0.00 84 1010.8
20260505005027 48 286 15.6 26.1 0.00 0.01 0.00 83 1010.7
20260505004629 48 285 15.6 27.8 0.00 0.01 0.00 82 1010.6
20260505004530 48 285 15.6 27.8 0.00 0.01 0.00 82 1010.6
20260505004108 48 286 15.6 32.2 0.00 0.01 0.00 83 1010.6
20260505004033 48 286 15.6 32.2 0.00 0.01 0.00 83 1010.6
20260505003630 48 258 23.5 32.2 0.00 0.01 0.00 82 1010.6
20260505003537 48 258 23.5 32.2 0.00 0.01 0.00 82 1010.6
20260505003040 48 265 15.6 27.8 0.00 0.01 0.00 82 1010.7
20260505002543 49 265 16.5 26.1 0.00 0.01 0.00 81 1011.0
20260505002046 49 253 11.3 27.8 0.00 0.01 0.00 81 1011.0
20260505001051 48 254 17.4 27.8 0.00 0.01 0.00 82 1010.8
20260505000555 48 271 11.3 26.1 0.00 0.01 0.00 82 1010.8
20260505000058 49 265 16.5 26.1 0.00 0.01 0.00 80 1010.8
20260504235713 49 264 12.2 26.9 0.00 0.01 0.00 80 1010.8
20260504235601 49 264 12.2 26.9 0.00 0.01 0.00 80 1010.8
20260504235104 49 252 20.0 26.9 0.00 0.01 0.00 80 1010.8
20260504234738 49 257 15.6 27.8 0.00 0.01 0.00 79 1010.7
20260504234607 49 257 15.6 27.8 0.00 0.01 0.00 79 1010.7
20260504234225 49 251 17.4 29.5 0.00 0.01 0.00 79 1010.9
20260504234109 49 251 17.4 29.5 0.00 0.01 0.00 79 1010.9
20260504233613 49 246 20.0 29.5 0.00 0.01 0.00 78 1010.8
20260504233116 49 251 16.5 26.1 0.00 0.01 0.00 78 1010.9
20260504232738 49 275 12.2 26.1 0.00 0.01 0.00 78 1010.8
20260504232619 49 275 12.2 26.1 0.00 0.01 0.00 78 1010.8
20260504232122 49 258 13.9 24.3 0.00 0.01 0.00 77 1010.7
20260504231128 50 280 13.0 22.6 0.00 0.01 0.00 76 1010.9
20260504230734 50 265 9.6 26.1 0.00 0.01 0.00 78 1011.0
20260504230631 50 265 9.6 26.1 0.00 0.01 0.00 78 1011.0
20260504225739 50 247 14.8 25.2 0.00 0.01 0.00 75 1010.9
20260504225637 50 247 14.8 25.2 0.00 0.01 0.00 75 1010.9
20260504225140 51 274 13.9 23.5 0.00 0.01 0.00 76 1010.9
20260504224643 50 263 13.0 25.2 0.00 0.01 0.00 77 1011.0
20260504224222 40 262 12.2 26.9 0.00 0.01 0.00 75 1011.0
20260504224146 0 262 12.2 26.9 0.00 0.01 0.00 75 1011.0
20260504223649 51 269 15.6 26.9 0.00 0.01 0.00 73 1010.8
20260504222655 51 282 15.6 23.5 0.00 0.01 0.00 75 1011.1
20260504222158 51 283 15.6 26.9 0.00 0.01 0.00 73 1011.1
20260504221928 51 254 17.4 26.9 0.00 0.01 0.00 73 1011.2
20260504221701 51 254 17.4 26.9 0.00 0.01 0.00 73 1011.2
20260504221204 51 279 14.8 26.9 0.00 0.01 0.00 76 1011.1
20260504220707 50 283 14.8 26.9 0.00 0.01 0.00 76 1011.2
20260504220348 50 274 14.8 26.9 0.00 0.01 0.00 75 1011.2
20260504220210 50 274 14.8 26.9 0.00 0.01 0.00 75 1011.2
20260504215712 51 247 19.1 28.7 0.00 0.01 0.00 75 1011.4
20260504215344 51 250 21.7 28.7 0.00 0.01 0.00 74 1011.3
20260504215216 51 250 21.7 28.7 0.00 0.01 0.00 74 1011.3
20260504214719 51 265 13.0 26.9 0.00 0.01 0.00 76 1011.5
20260504214222 51 264 12.2 27.8 0.00 0.01 0.00 77 1011.4
20260504213725 51 253 18.2 27.8 0.00 0.01 0.00 77 1011.5
20260504213342 51 257 15.6 26.1 0.00 0.01 0.00 77 1011.6
20260504213228 51 257 15.6 26.1 0.00 0.01 0.00 77 1011.6
20260504212730 50 269 12.2 23.5 0.00 0.01 0.00 79 1011.8
20260504212234 50 282 13.0 22.6 0.00 0.01 0.00 81 1011.7
20260504211737 49 269 10.4 22.6 0.00 0.01 0.00 81 1011.9
20260504211239 50 280 11.3 22.6 0.00 0.01 0.00 80 1011.9
20260504210245 50 277 12.2 20.0 0.00 0.01 0.00 81 1012.0
20260504205820 50 264 9.6 25.2 0.00 0.01 0.00 83 1012.0
20260504205749 50 264 9.6 25.2 0.00 0.01 0.00 83 1012.0
20260504204754 49 286 13.0 22.6 0.00 0.01 0.00 85 1011.8
20260504204257 49 275 13.9 25.2 0.00 0.01 0.00 84 1011.7
20260504203801 50 282 15.6 25.2 0.00 0.01 0.00 82 1012.0
20260504203303 50 277 12.2 24.3 0.00 0.01 0.00 84 1011.9
20260504202859 49 269 12.2 22.6 0.00 0.01 0.00 85 1011.9
20260504202806 49 269 12.2 22.6 0.00 0.01 0.00 85 1011.9
20260504202310 49 258 13.9 22.6 0.00 0.01 0.00 85 1012.0
20260504201813 49 266 14.8 21.7 0.00 0.01 0.00 85 1012.0
20260504201453 48 289 12.2 20.9 0.00 0.01 0.00 88 1012.0
20260504201351 48 289 12.2 20.9 0.00 0.01 0.00 88 1012.0
20260504201316 48 289 12.2 20.9 0.00 0.01 0.00 88 1012.0
20260504200914 48 290 9.6 18.2 0.00 0.01 0.00 90 1012.0
20260504200819 48 290 9.6 18.2 0.00 0.01 0.00 90 1012.0
20260504195825 47 267 10.4 16.5 0.00 0.01 0.00 91 1012.1
20260504195328 47 276 10.4 18.2 0.00 0.01 0.00 92 1012.1
20260504194831 46 275 12.2 20.9 0.00 0.01 0.00 92 1012.1
20260504194334 46 272 13.9 20.9 0.00 0.01 0.00 92 1012.1
20260504193837 46 252 11.3 17.4 0.00 0.01 0.00 93 1012.1
20260504193340 46 276 9.6 19.1 0.00 0.01 0.00 94 1012.3
20260504192843 46 262 11.3 19.1 0.00 0.01 0.00 94 1012.0
20260504192346 46 286 10.4 18.2 0.00 0.01 0.00 94 1011.8
20260504191849 46 275 7.0 21.7 0.00 0.01 0.00 94 1012.1
20260504191352 46 272 8.7 25.2 0.00 0.01 0.00 94 1012.1
20260504190943 45 262 18.2 25.2 0.00 0.01 0.00 94 1012.1
20260504190855 45 262 18.2 25.2 0.00 0.01 0.00 94 1012.1
20260504190358 45 263 17.4 23.5 0.00 0.01 0.00 94 1012.1
20260504185901 45 261 14.8 22.6 0.00 0.01 0.00 94 1012.3
20260504185404 45 270 8.7 23.5 0.00 0.01 0.00 94 1012.3
20260504184907 46 269 15.6 23.5 0.00 0.01 0.00 94 1012.3
20260504184552 46 262 16.5 24.3 0.00 0.01 0.00 95 1013.0
20260504184410 46 262 16.5 24.3 0.00 0.01 0.00 95 1013.0
20260504183913 45 256 10.4 24.3 0.00 0.01 0.00 96 1013.0
20260504183416 45 267 16.5 24.3 0.00 0.01 0.00 96 1013.0
20260504182919 44 269 18.2 23.5 0.00 0.01 0.00 97 1013.0
20260504182422 44 274 13.9 25.2 0.00 0.01 0.00 97 1013.0
20260504181925 44 275 15.6 25.2 0.00 0.01 0.00 97 1012.8
20260504181428 44 272 15.6 24.3 0.00 0.01 0.00 97 1012.9